Regional Weather Roundup
Issued by NWS

Home | Current Version | Previous Version | Text Only | Print | Product List | Glossary On
Versions: 1 2 3 4 5 6 7 8 9 10 11 12 13 14 15 16 17 18 19 20 21 22 23 24 25 26 27 28
000
ASUS45 KBOI 250610
RWRID

IDAHO REGIONAL WEATHER ROUNDUP
NATIONAL WEATHER SERVICE BOISE ID
1200 AM MDT WED MAY 25 2016

NOTE: "FAIR" INDICATES FEW OR NO CLOUDS BELOW 12000 FEET
WITH NO SIGNIFICANT WEATHER AND/OR OBSTRUCTIONS TO VISIBILITY

IDZ012-014-250700-
SOUTHWEST IDAHO


CITY           SKY/WX    TMP DP  RH WIND       PRES   REMARKS
BOISE          MOCLDY    60  38  43 W6        29.88R
CALDWELL       MOCLDY    58  41  53 NW8       29.89R
MOUNTAIN HOME  PTCLDY    57  37  47 W9        29.88R
$$

IDZ016-017-250700-
SOUTHCENTRAL IDAHO


CITY           SKY/WX    TMP DP  RH WIND       PRES   REMARKS
BURLEY         MOCLDY    51  42  71 SW16      29.90R
JEROME         CLEAR     50  41  71 S8        29.91R
TWIN FALLS     CLEAR     50  40  68 S12       29.91S
$$

IDZ019>023-250700-
SOUTHEAST IDAHO


CITY           SKY/WX    TMP DP  RH WIND       PRES   REMARKS
IDAHO FALLS    LGT RAIN  48  43  82 SE21      29.94F
POCATELLO      CLOUDY    49  43  80 S17       29.92F
REXBURG        LGT RAIN  48  44  86 SE3       29.97R FOG
$$

IDZ006-010-011-018-031-032-250700-
CENTRAL IDAHO MOUNTAINS


CITY           SKY/WX    TMP DP  RH WIND       PRES   REMARKS
MCCALL         CLOUDY    46  35  65 N6        29.94R
HAILEY         MOCLDY    46  39  76 NW7       29.94S
STANLEY          N/A     40  32  73 CALM      29.97R
SALMON         CLOUDY    52  37  58 S3        29.93R
CHALLIS        CLOUDY    47  40  76 CALM      29.96S
$$

IDZ002-004-006-007-026-250700-
NORTHERN IDAHO


CITY           SKY/WX    TMP DP  RH WIND       PRES   REMARKS
LEWISTON       PTCLDY    56  46  69 SW5       29.92S
LOWELL           N/A     49  47  93 CALM      29.98R
COEUR D`ALENE  CLEAR     52  46  82 SE5       29.92R
MULLAN PASS    FOG       39  39 100 NW6       29.98S VSB 1/4 WCI  35
$$




USA.gov is the U.S. government's official web portal to all federal, state and local government web resources and services.